Time,TemperatureF,DewpointF,PressureIn,WindDirection,WindDirectionDegrees,WindSpeedMPH,WindSpeedGustMPH,Humidity,HourlyPrecipIn,Conditions,Clouds,dailyrainin,SoftwareType,DateUTC
2013-11-22 00:04:00,44.8,42.0,-100.00,SW,220,0.0,1.0,92,0.31,,,0.00,,2013-11-22 06:04:00,
2013-11-22 00:09:00,44.5,15.0,-100.00,WSW,254,0.0,1.0,31,0.12,,,0.00,,2013-11-22 06:09:00,
2013-11-22 00:14:00,44.4,38.0,-100.00,SW,220,0.0,1.0,79,0.09,,,0.00,,2013-11-22 06:14:00,
2013-11-22 00:19:00,44.4,31.0,-100.00,SW,220,0.0,1.0,61,0.06,,,0.00,,2013-11-22 06:19:00,
2013-11-22 00:24:00,44.5,44.0,-100.00,SW,220,0.0,1.0,100,0.06,,,0.00,,2013-11-22 06:24:00,
2013-11-22 00:29:00,44.1,44.0,-100.00,West,265,0.0,1.0,100,0.06,,,0.00,,2013-11-22 06:29:00,
2013-11-22 00:34:00,44.0,43.0,-100.00,WSW,257,0.0,0.0,97,0.06,,,0.00,,2013-11-22 06:34:00,
2013-11-22 00:39:00,42.8,41.0,-100.00,West,265,0.0,0.0,96,0.06,,,0.00,,2013-11-22 06:39:00,
2013-11-22 00:44:00,42.6,42.0,-100.00,West,265,0.0,0.0,100,0.03,,,0.00,,2013-11-22 06:44:00,
2013-11-22 00:49:00,42.7,42.0,-100.00,West,265,0.0,1.0,99,0.00,,,0.00,,2013-11-22 06:49:00,
2013-11-22 00:54:00,42.7,42.0,-100.00,West,265,0.0,1.0,99,0.00,,,0.00,,2013-11-22 06:54:00,
2013-11-22 00:59:00,42.6,42.0,-100.00,West,265,0.0,0.0,100,0.00,,,0.00,,2013-11-22 06:59:00,
2013-11-22 01:04:00,42.3,42.0,-100.00,SW,220,0.0,0.0,100,0.00,,,0.00,,2013-11-22 07:04:00,
2013-11-22 01:09:00,42.3,42.0,-100.00,WSW,257,0.0,0.0,100,0.00,,,0.00,,2013-11-22 07:09:00,
2013-11-22 01:14:00,42.3,42.0,-100.00,West,265,0.0,0.0,100,0.00,,,0.00,,2013-11-22 07:14:00,
2013-11-22 01:19:00,42.1,40.0,-100.00,West,265,0.0,0.0,94,0.00,,,0.00,,2013-11-22 07:19:00,
2013-11-22 01:24:00,42.2,40.0,-100.00,West,265,0.0,0.0,95,0.00,,,0.00,,2013-11-22 07:24:00,
2013-11-22 01:29:00,42.0,42.0,-100.00,West,265,0.0,0.0,100,0.00,,,0.00,,2013-11-22 07:29:00,
2013-11-22 01:39:00,40.7,38.0,-100.00,WSW,246,0.0,1.0,93,0.00,,,0.00,,2013-11-22 07:39:00,
2013-11-22 01:44:00,40.5,40.0,-100.00,WSW,240,0.0,1.0,100,0.00,,,0.00,,2013-11-22 07:44:00,
2013-11-22 01:49:00,40.5,39.0,-100.00,SW,220,0.0,1.0,97,0.00,,,0.00,,2013-11-22 07:49:00,
2013-11-22 01:54:00,40.3,39.0,-100.00,SW,234,0.0,1.0,97,0.00,,,0.00,,2013-11-22 07:54:00,
2013-11-22 01:59:00,40.2,39.0,-100.00,SW,220,0.0,1.0,99,0.00,,,0.00,,2013-11-22 07:59:00,
2013-11-22 02:04:00,40.1,39.0,-100.00,SW,220,0.0,1.0,99,0.00,,,0.00,,2013-11-22 08:04:00,
2013-11-22 02:09:00,40.0,38.0,-100.00,SSW,198,0.0,1.0,96,0.00,,,0.00,,2013-11-22 08:09:00,
2013-11-22 02:14:00,40.0,40.0,-100.00,SW,220,0.0,1.0,100,0.00,,,0.00,,2013-11-22 08:14:00,
2013-11-22 02:19:00,40.0,40.0,-100.00,SW,220,0.0,1.0,100,0.00,,,0.00,,2013-11-22 08:19:00,
2013-11-22 02:24:00,39.9,39.0,-100.00,SW,220,0.0,1.0,100,0.03,,,0.03,,2013-11-22 08:24:00,
2013-11-22 02:29:00,39.9,39.0,-100.00,SW,220,0.0,1.0,100,0.03,,,0.03,,2013-11-22 08:29:00,
2013-11-22 02:34:00,39.9,39.0,-100.00,SW,223,0.0,0.0,100,0.03,,,0.03,,2013-11-22 08:34:00,
2013-11-22 02:39:00,39.6,39.0,-100.00,SW,220,0.0,1.0,100,0.06,,,0.06,,2013-11-22 08:39:00,
2013-11-22 02:44:00,39.4,39.0,-100.00,SW,215,0.0,1.0,100,0.12,,,0.12,,2013-11-22 08:44:00,
2013-11-22 02:49:00,39.2,39.0,-100.00,SW,220,0.0,1.0,100,0.16,,,0.15,,2013-11-22 08:49:00,
2013-11-22 02:54:00,39.4,39.0,-100.00,SW,220,0.0,1.0,100,0.19,,,0.19,,2013-11-22 08:54:00,
2013-11-22 02:59:00,39.3,39.0,-100.00,SW,220,0.0,0.0,100,0.19,,,0.19,,2013-11-22 08:59:00,
2013-11-22 03:04:00,39.2,39.0,-100.00,SW,220,0.0,0.0,100,0.25,,,0.25,,2013-11-22 09:04:00,
2013-11-22 03:09:00,39.1,39.0,-100.00,SW,220,0.0,1.0,100,0.31,,,0.31,,2013-11-22 09:09:00,
2013-11-22 03:14:00,39.0,39.0,-100.00,SW,215,0.0,1.0,100,0.31,,,0.31,,2013-11-22 09:14:00,
2013-11-22 03:19:00,37.8,37.0,-100.00,SW,223,0.0,1.0,100,0.31,,,0.31,,2013-11-22 09:19:00,
2013-11-22 03:24:00,37.8,37.0,-100.00,SW,220,0.0,1.0,100,0.28,,,0.31,,2013-11-22 09:24:00,
2013-11-22 03:29:00,37.8,37.0,-100.00,SW,220,0.0,1.0,100,0.28,,,0.31,,2013-11-22 09:29:00,
2013-11-22 03:34:00,37.8,37.0,-100.00,SW,220,0.0,1.0,100,0.28,,,0.31,,2013-11-22 09:34:00,
2013-11-22 03:39:00,37.6,37.0,-100.00,SW,220,0.0,1.0,100,0.25,,,0.31,,2013-11-22 09:39:00,
2013-11-22 03:44:00,37.6,37.0,-100.00,SW,220,0.0,1.0,100,0.19,,,0.31,,2013-11-22 09:44:00,
2013-11-22 03:49:00,37.6,37.0,-100.00,SW,226,0.0,1.0,100,0.16,,,0.31,,2013-11-22 09:49:00,
2013-11-22 03:54:00,37.5,37.0,-100.00,SW,217,0.0,0.0,100,0.12,,,0.31,,2013-11-22 09:54:00,
2013-11-22 03:59:00,37.6,37.0,-100.00,SW,220,0.0,1.0,100,0.12,,,0.31,,2013-11-22 09:59:00,
2013-11-22 04:04:00,37.5,37.0,-100.00,SSW,201,0.0,1.0,100,0.06,,,0.31,,2013-11-22 10:04:00,
2013-11-22 04:09:00,37.5,37.0,-100.00,SW,220,0.0,1.0,100,0.00,,,0.31,,2013-11-22 10:09:00,
2013-11-22 04:14:00,37.3,37.0,-100.00,SW,220,0.0,1.0,100,0.00,,,0.31,,2013-11-22 10:14:00,
2013-11-22 04:19:00,37.4,37.0,-100.00,SW,220,0.0,1.0,100,0.00,,,0.31,,2013-11-22 10:19:00,
2013-11-22 04:24:00,37.3,37.0,-100.00,SW,220,0.0,1.0,100,0.00,,,0.31,,2013-11-22 10:24:00,
2013-11-22 04:29:00,37.3,37.0,-100.00,SW,223,0.0,1.0,100,0.00,,,0.31,,2013-11-22 10:29:00,
2013-11-22 04:34:00,37.2,37.0,-100.00,SW,217,0.0,1.0,100,0.00,,,0.31,,2013-11-22 10:34:00,
2013-11-22 04:39:00,37.1,37.0,-100.00,SW,220,0.0,0.0,100,0.00,,,0.31,,2013-11-22 10:39:00,
2013-11-22 04:44:00,37.0,37.0,-100.00,SW,220,0.0,0.0,100,0.00,,,0.31,,2013-11-22 10:44:00,
2013-11-22 04:49:00,37.0,33.0,-100.00,SW,220,0.0,0.0,87,0.00,,,0.31,,2013-11-22 10:49:00,
2013-11-22 04:54:00,37.0,36.0,-100.00,SW,217,0.0,1.0,97,0.00,,,0.31,,2013-11-22 10:54:00,
2013-11-22 04:59:00,37.0,37.0,-100.00,SW,223,0.0,1.0,100,0.00,,,0.31,,2013-11-22 10:59:00,
2013-11-22 05:04:00,37.0,37.0,-100.00,West,265,0.0,1.0,100,0.00,,,0.31,,2013-11-22 11:04:00,
2013-11-22 05:09:00,37.0,37.0,-100.00,SW,220,0.0,1.0,100,0.00,,,0.31,,2013-11-22 11:09:00,
2013-11-22 05:14:00,35.9,35.0,-100.00,SW,220,0.0,0.0,100,0.00,,,0.31,,2013-11-22 11:14:00,
2013-11-22 05:19:00,35.7,35.0,-100.00,SW,217,0.0,1.0,100,0.00,,,0.31,,2013-11-22 11:19:00,
2013-11-22 05:24:00,35.6,35.0,-100.00,SW,220,0.0,1.0,100,0.00,,,0.31,,2013-11-22 11:24:00,
2013-11-22 05:29:00,35.6,35.0,-100.00,West,265,0.0,1.0,100,0.00,,,0.31,,2013-11-22 11:29:00,
2013-11-22 05:34:00,35.5,35.0,-100.00,WSW,237,0.0,1.0,100,0.00,,,0.31,,2013-11-22 11:34:00,
2013-11-22 05:39:00,35.5,35.0,-100.00,SW,220,0.0,1.0,100,0.00,,,0.31,,2013-11-22 11:39:00,
2013-11-22 05:44:00,35.5,35.0,-100.00,SW,220,0.0,1.0,100,0.00,,,0.31,,2013-11-22 11:44:00,
2013-11-22 05:49:00,35.5,35.0,-100.00,SW,220,0.0,1.0,100,0.00,,,0.31,,2013-11-22 11:49:00,
2013-11-22 05:54:00,35.6,35.0,-100.00,SW,220,0.0,1.0,100,0.00,,,0.31,,2013-11-22 11:54:00,
2013-11-22 05:59:00,35.6,35.0,-100.00,SW,220,0.0,1.0,100,0.00,,,0.31,,2013-11-22 11:59:00,
2013-11-22 06:04:00,35.5,35.0,-100.00,WSW,243,0.0,0.0,100,0.00,,,0.31,,2013-11-22 12:04:00,
2013-11-22 06:09:00,35.3,35.0,-100.00,SW,234,0.0,0.0,100,0.00,,,0.31,,2013-11-22 12:09:00,
2013-11-22 06:14:00,35.2,35.0,-100.00,SW,220,0.0,1.0,100,0.00,,,0.31,,2013-11-22 12:14:00,
2013-11-22 06:19:00,35.1,35.0,-100.00,SW,232,0.0,1.0,100,0.00,,,0.31,,2013-11-22 12:19:00,
2013-11-22 06:24:00,35.3,35.0,-100.00,WSW,243,0.0,1.0,100,0.00,,,0.31,,2013-11-22 12:24:00,
2013-11-22 06:29:00,35.3,35.0,-100.00,WSW,243,0.0,1.0,100,0.00,,,0.31,,2013-11-22 12:29:00,
2013-11-22 06:34:00,35.4,35.0,-100.00,WSW,243,0.0,1.0,100,0.00,,,0.31,,2013-11-22 12:34:00,
2013-11-22 06:39:00,35.4,35.0,-100.00,WSW,243,0.0,1.0,100,0.00,,,0.31,,2013-11-22 12:39:00,
2013-11-22 06:44:00,35.6,35.0,-100.00,WSW,243,0.0,0.0,100,0.00,,,0.31,,2013-11-22 12:44:00,
2013-11-22 06:49:00,35.6,35.0,-100.00,WSW,243,0.0,1.0,100,0.00,,,0.31,,2013-11-22 12:49:00,
2013-11-22 06:54:00,35.5,35.0,-100.00,WSW,243,0.0,1.0,100,0.00,,,0.31,,2013-11-22 12:54:00,
2013-11-22 06:59:00,35.4,35.0,-100.00,SW,229,0.0,0.0,100,0.00,,,0.31,,2013-11-22 12:59:00,
2013-11-22 07:04:00,35.4,35.0,-100.00,WSW,237,0.0,1.0,100,0.00,,,0.31,,2013-11-22 13:04:00,
2013-11-22 07:09:00,35.3,35.0,-100.00,WSW,243,0.0,1.0,100,0.00,,,0.31,,2013-11-22 13:09:00,
2013-11-22 07:14:00,35.3,35.0,-100.00,SW,220,0.0,1.0,100,0.00,,,0.31,,2013-11-22 13:14:00,
2013-11-22 07:19:00,35.3,35.0,-100.00,SW,220,0.0,1.0,100,0.00,,,0.31,,2013-11-22 13:19:00,
2013-11-22 07:24:00,35.3,35.0,-100.00,SW,223,0.0,1.0,100,0.00,,,0.31,,2013-11-22 13:24:00,
2013-11-22 07:29:00,35.3,35.0,-100.00,WSW,243,0.0,1.0,100,0.00,,,0.31,,2013-11-22 13:29:00,
2013-11-22 07:34:00,35.3,35.0,-100.00,WSW,243,0.0,1.0,100,0.00,,,0.31,,2013-11-22 13:34:00,
2013-11-22 07:39:00,35.3,35.0,-100.00,SW,220,0.0,0.0,100,0.00,,,0.31,,2013-11-22 13:39:00,
2013-11-22 07:44:00,35.2,35.0,-100.00,SW,220,0.0,0.0,100,0.00,,,0.31,,2013-11-22 13:44:00,
2013-11-22 07:49:00,35.1,35.0,-100.00,SW,220,0.0,1.0,100,0.00,,,0.31,,2013-11-22 13:49:00,
2013-11-22 07:54:00,35.1,35.0,-100.00,SW,220,0.0,1.0,100,0.00,,,0.31,,2013-11-22 13:54:00,
2013-11-22 07:59:00,35.1,35.0,-100.00,SW,220,0.0,1.0,100,0.00,,,0.31,,2013-11-22 13:59:00,
2013-11-22 08:04:00,35.1,34.0,-100.00,WSW,243,0.0,1.0,97,0.00,,,0.31,,2013-11-22 14:04:00,
2013-11-22 08:09:00,35.1,33.0,-100.00,WSW,254,0.0,1.0,95,0.00,,,0.31,,2013-11-22 14:09:00,
2013-11-22 08:14:00,35.1,33.0,-100.00,SSW,198,0.0,0.0,95,0.00,,,0.31,,2013-11-22 14:14:00,
2013-11-22 08:19:00,35.1,35.0,-100.00,SW,231,0.0,1.0,100,0.00,,,0.31,,2013-11-22 14:19:00,
2013-11-22 08:24:00,35.1,35.0,-100.00,West,262,0.0,1.0,100,0.00,,,0.31,,2013-11-22 14:24:00,
2013-11-22 08:29:00,35.1,33.0,-100.00,West,265,0.0,1.0,95,0.00,,,0.31,,2013-11-22 14:29:00,
2013-11-22 08:34:00,35.2,35.0,-100.00,WSW,246,0.0,1.0,100,0.00,,,0.31,,2013-11-22 14:34:00,
2013-11-22 08:39:00,35.1,35.0,-100.00,WSW,251,0.0,1.0,100,0.03,,,0.34,,2013-11-22 14:39:00,
2013-11-22 08:44:00,35.1,35.0,-100.00,West,265,0.0,1.0,100,0.03,,,0.34,,2013-11-22 14:44:00,
2013-11-22 08:49:00,35.2,34.0,-100.00,West,265,0.0,1.0,97,0.06,,,0.37,,2013-11-22 14:49:00,
2013-11-22 08:54:00,35.1,34.0,-100.00,West,265,0.0,1.0,98,0.06,,,0.37,,2013-11-22 14:54:00,
2013-11-22 08:59:00,35.2,35.0,-100.00,West,265,0.0,1.0,100,0.06,,,0.37,,2013-11-22 14:59:00,
2013-11-22 09:04:00,35.0,35.0,-100.00,SW,220,0.0,0.0,100,0.06,,,0.37,,2013-11-22 15:04:00,
2013-11-22 09:09:00,35.0,35.0,-100.00,SW,220,0.0,0.0,100,0.06,,,0.37,,2013-11-22 15:09:00,
2013-11-22 09:14:00,33.9,33.0,-100.00,West,265,0.0,0.0,100,0.06,,,0.37,,2013-11-22 15:14:00,
2013-11-22 09:19:00,33.9,33.0,-100.00,West,265,0.0,0.0,100,0.09,,,0.40,,2013-11-22 15:19:00,
2013-11-22 09:24:00,35.0,35.0,-100.00,West,262,0.0,0.0,100,0.09,,,0.40,,2013-11-22 15:24:00,
2013-11-22 09:29:00,35.0,35.0,-100.00,WSW,243,0.0,0.0,100,0.09,,,0.40,,2013-11-22 15:29:00,
2013-11-22 09:34:00,35.1,35.0,-100.00,SW,220,0.0,0.0,100,0.09,,,0.40,,2013-11-22 15:34:00,
2013-11-22 09:39:00,35.0,35.0,-100.00,WSW,237,0.0,0.0,100,0.06,,,0.40,,2013-11-22 15:39:00,
2013-11-22 09:44:00,35.0,35.0,-100.00,SW,220,0.0,0.0,100,0.06,,,0.40,,2013-11-22 15:44:00,
2013-11-22 09:49:00,35.1,35.0,-100.00,SW,220,0.0,0.0,100,0.03,,,0.40,,2013-11-22 15:49:00,
2013-11-22 09:54:00,35.2,35.0,-100.00,SW,220,0.0,0.0,100,0.03,,,0.40,,2013-11-22 15:54:00,
2013-11-22 09:59:00,35.2,35.0,-100.00,SW,220,0.0,0.0,100,0.03,,,0.40,,2013-11-22 15:59:00,
2013-11-22 10:04:00,35.2,35.0,-100.00,SW,220,0.0,1.0,100,0.03,,,0.40,,2013-11-22 16:04:00,
2013-11-22 10:09:00,35.1,35.0,-100.00,SW,220,0.0,1.0,100,0.03,,,0.40,,2013-11-22 16:09:00,
2013-11-22 10:14:00,33.9,33.0,-100.00,SW,220,0.0,1.0,100,0.03,,,0.40,,2013-11-22 16:14:00,
2013-11-22 10:19:00,35.0,35.0,-100.00,SW,220,0.0,1.0,100,0.00,,,0.40,,2013-11-22 16:19:00,
2013-11-22 10:24:00,35.0,35.0,-100.00,SW,220,0.0,1.0,100,0.00,,,0.40,,2013-11-22 16:24:00,
2013-11-22 10:29:00,33.9,33.0,-100.00,SW,220,0.0,1.0,100,0.00,,,0.43,,2013-11-22 16:29:00,
2013-11-22 10:34:00,33.9,33.0,-100.00,SW,220,0.0,1.0,100,0.03,,,0.43,,2013-11-22 16:34:00,
2013-11-22 10:39:00,35.1,35.0,-100.00,SW,220,0.0,1.0,100,0.03,,,0.43,,2013-11-22 16:39:00,
2013-11-22 10:44:00,35.2,35.0,-100.00,SW,232,0.0,1.0,100,0.03,,,0.43,,2013-11-22 16:44:00,
2013-11-22 10:49:00,35.0,35.0,-100.00,WSW,243,0.0,0.0,100,0.03,,,0.43,,2013-11-22 16:49:00,
2013-11-22 10:54:00,33.9,33.0,-100.00,SW,220,0.0,0.0,100,0.03,,,0.43,,2013-11-22 16:54:00,
2013-11-22 10:59:00,33.9,33.0,-100.00,SW,220,0.0,0.0,100,0.03,,,0.43,,2013-11-22 16:59:00,
2013-11-22 11:04:00,33.9,33.0,-100.00,SW,220,0.0,0.0,100,0.03,,,0.43,,2013-11-22 17:04:00,
2013-11-22 11:09:00,33.9,33.0,-100.00,WSW,237,0.0,1.0,100,0.03,,,0.43,,2013-11-22 17:09:00,
2013-11-22 11:14:00,35.0,35.0,-100.00,West,265,0.0,1.0,100,0.03,,,0.43,,2013-11-22 17:14:00,
2013-11-22 11:19:00,35.0,35.0,-100.00,SW,226,0.0,1.0,100,0.03,,,0.43,,2013-11-22 17:19:00,
2013-11-22 11:24:00,33.8,33.0,-100.00,SW,220,0.0,0.0,100,0.03,,,0.43,,2013-11-22 17:24:00,
2013-11-22 11:29:00,33.7,33.0,-100.00,SW,220,0.0,0.0,100,0.03,,,0.43,,2013-11-22 17:29:00,
2013-11-22 11:34:00,33.6,33.0,-100.00,SW,220,0.0,1.0,100,0.00,,,0.43,,2013-11-22 17:34:00,
2013-11-22 11:39:00,33.5,33.0,-100.00,SW,220,0.0,1.0,100,0.00,,,0.43,,2013-11-22 17:39:00,
2013-11-22 11:44:00,33.6,33.0,-100.00,West,265,0.0,1.0,100,0.00,,,0.43,,2013-11-22 17:44:00,
2013-11-22 11:49:00,33.8,33.0,-100.00,WSW,237,0.0,1.0,100,0.00,,,0.43,,2013-11-22 17:49:00,
2013-11-22 11:54:00,33.8,33.0,-100.00,SW,215,0.0,1.0,100,0.00,,,0.43,,2013-11-22 17:54:00,
2013-11-22 11:59:00,33.8,33.0,-100.00,West,265,0.0,1.0,100,0.00,,,0.43,,2013-11-22 17:59:00,
2013-11-22 12:04:00,33.8,33.0,-100.00,WSW,257,0.0,1.0,100,0.00,,,0.43,,2013-11-22 18:04:00,
2013-11-22 12:09:00,33.8,33.0,-100.00,West,265,0.0,0.0,100,0.00,,,0.43,,2013-11-22 18:09:00,
2013-11-22 12:14:00,33.6,33.0,-100.00,SW,220,0.0,1.0,100,0.00,,,0.43,,2013-11-22 18:14:00,
2013-11-22 12:19:00,33.7,33.0,-100.00,SW,220,0.0,1.0,100,0.00,,,0.43,,2013-11-22 18:19:00,
2013-11-22 12:24:00,33.6,33.0,-100.00,WSW,243,0.0,1.0,100,0.00,,,0.43,,2013-11-22 18:24:00,
2013-11-22 12:29:00,33.8,33.0,-100.00,West,260,0.0,1.0,100,0.00,,,0.43,,2013-11-22 18:29:00,
2013-11-22 12:34:00,33.5,33.0,-100.00,SW,231,0.0,1.0,100,0.00,,,0.43,,2013-11-22 18:34:00,
2013-11-22 12:39:00,33.6,33.0,-100.00,SW,220,0.0,1.0,100,0.00,,,0.43,,2013-11-22 18:39:00,
2013-11-22 12:44:00,33.6,33.0,-100.00,SW,220,0.0,1.0,100,0.00,,,0.43,,2013-11-22 18:44:00,
2013-11-22 12:49:00,33.5,33.0,-100.00,WSW,246,0.0,1.0,100,0.00,,,0.43,,2013-11-22 18:49:00,
2013-11-22 12:54:00,33.4,33.0,-100.00,West,265,0.0,1.0,100,0.00,,,0.43,,2013-11-22 18:54:00,
2013-11-22 12:59:00,33.3,33.0,-100.00,WSW,243,0.0,1.0,100,0.00,,,0.43,,2013-11-22 18:59:00,
2013-11-22 13:04:00,33.3,33.0,-100.00,SW,226,0.0,1.0,100,0.00,,,0.43,,2013-11-22 19:04:00,
2013-11-22 13:09:00,33.3,33.0,-100.00,West,265,0.0,1.0,100,0.00,,,0.43,,2013-11-22 19:09:00,
2013-11-22 13:14:00,33.3,33.0,-100.00,SW,220,0.0,1.0,100,0.00,,,0.43,,2013-11-22 19:14:00,
2013-11-22 13:19:00,33.3,33.0,-100.00,SW,220,0.0,1.0,100,0.00,,,0.43,,2013-11-22 19:19:00,
2013-11-22 13:24:00,33.3,33.0,-100.00,SW,220,0.0,1.0,100,0.00,,,0.43,,2013-11-22 19:24:00,
2013-11-22 13:29:00,33.5,33.0,-100.00,SSW,212,0.0,1.0,100,0.00,,,0.43,,2013-11-22 19:29:00,
2013-11-22 13:34:00,33.4,33.0,-100.00,SW,234,0.0,1.0,100,0.00,,,0.43,,2013-11-22 19:34:00,
2013-11-22 13:39:00,33.4,33.0,-100.00,WSW,243,0.0,1.0,100,0.00,,,0.43,,2013-11-22 19:39:00,
2013-11-22 13:44:00,33.5,33.0,-100.00,West,265,0.0,1.0,100,0.00,,,0.43,,2013-11-22 19:44:00,
2013-11-22 13:49:00,33.6,33.0,-100.00,SSW,204,0.0,1.0,100,0.00,,,0.43,,2013-11-22 19:49:00,
2013-11-22 13:54:00,33.6,33.0,-100.00,SW,221,0.0,1.0,100,0.00,,,0.43,,2013-11-22 19:54:00,
2013-11-22 13:59:00,33.3,33.0,-100.00,SW,226,0.0,1.0,100,0.00,,,0.43,,2013-11-22 19:59:00,
2013-11-22 14:04:00,33.2,33.0,-100.00,SSW,212,0.0,1.0,100,0.00,,,0.43,,2013-11-22 20:04:00,
2013-11-22 14:09:00,33.2,33.0,-100.00,West,265,0.0,1.0,100,0.00,,,0.43,,2013-11-22 20:09:00,
2013-11-22 14:14:00,33.1,33.0,-100.00,SW,220,0.0,1.0,100,0.00,,,0.43,,2013-11-22 20:14:00,
2013-11-22 14:19:00,33.3,33.0,-100.00,SW,220,0.0,1.0,100,0.00,,,0.43,,2013-11-22 20:19:00,
2013-11-22 14:24:00,33.3,33.0,-100.00,SW,220,0.0,1.0,100,0.00,,,0.43,,2013-11-22 20:24:00,
2013-11-22 14:29:00,33.2,33.0,-100.00,SW,223,0.0,1.0,100,0.00,,,0.43,,2013-11-22 20:29:00,
2013-11-22 14:34:00,33.1,33.0,-100.00,SW,229,0.0,1.0,100,0.00,,,0.43,,2013-11-22 20:34:00,
2013-11-22 14:39:00,33.1,33.0,-100.00,SW,220,0.0,1.0,100,0.00,,,0.43,,2013-11-22 20:39:00,
2013-11-22 14:44:00,33.2,33.0,-100.00,SW,220,0.0,1.0,100,0.00,,,0.43,,2013-11-22 20:44:00,
2013-11-22 14:49:00,33.1,33.0,-100.00,SW,229,0.0,1.0,100,0.00,,,0.43,,2013-11-22 20:49:00,
2013-11-22 14:54:00,33.1,33.0,-100.00,West,265,0.0,1.0,100,0.00,,,0.43,,2013-11-22 20:54:00,
2013-11-22 14:59:00,33.1,33.0,-100.00,West,265,0.0,1.0,100,0.00,,,0.43,,2013-11-22 20:59:00,
2013-11-22 15:04:00,33.0,33.0,-100.00,WSW,243,0.0,1.0,100,0.00,,,0.43,,2013-11-22 21:04:00,
2013-11-22 15:09:00,32.9,32.0,-100.00,WSW,240,0.0,1.0,100,0.00,,,0.43,,2013-11-22 21:09:00,
2013-11-22 15:14:00,33.0,33.0,-100.00,WSW,248,0.0,1.0,100,0.00,,,0.43,,2013-11-22 21:14:00,
2013-11-22 15:19:00,33.0,33.0,-100.00,SW,220,0.0,1.0,100,0.00,,,0.43,,2013-11-22 21:19:00,
2013-11-22 15:24:00,32.8,32.0,-100.00,SW,220,0.0,1.0,100,0.00,,,0.43,,2013-11-22 21:24:00,
2013-11-22 15:29:00,32.9,32.0,-100.00,SW,220,0.0,1.0,100,0.00,,,0.43,,2013-11-22 21:29:00,
2013-11-22 15:34:00,32.8,32.0,-100.00,SW,220,0.0,1.0,100,0.00,,,0.43,,2013-11-22 21:34:00,
2013-11-22 15:39:00,32.8,32.0,-100.00,SW,220,0.0,1.0,100,0.00,,,0.43,,2013-11-22 21:39:00,
2013-11-22 15:44:00,32.8,32.0,-100.00,SW,215,0.0,1.0,100,0.00,,,0.43,,2013-11-22 21:44:00,
2013-11-22 15:49:00,32.8,32.0,-100.00,SW,220,0.0,1.0,100,0.00,,,0.43,,2013-11-22 21:49:00,
2013-11-22 15:54:00,32.9,32.0,-100.00,SW,220,0.0,1.0,100,0.00,,,0.43,,2013-11-22 21:54:00,
2013-11-22 15:59:00,33.0,33.0,-100.00,WSW,257,0.0,1.0,100,0.00,,,0.43,,2013-11-22 21:59:00,
2013-11-22 16:04:00,33.0,33.0,-100.00,West,265,0.0,1.0,100,0.00,,,0.43,,2013-11-22 22:04:00,
2013-11-22 16:09:00,33.0,33.0,-100.00,West,265,0.0,1.0,100,0.00,,,0.43,,2013-11-22 22:09:00,
2013-11-22 16:14:00,33.1,33.0,-100.00,West,265,0.0,1.0,100,0.00,,,0.43,,2013-11-22 22:14:00,
2013-11-22 16:19:00,33.1,33.0,-100.00,WSW,254,0.0,1.0,100,0.00,,,0.43,,2013-11-22 22:19:00,
2013-11-22 16:24:00,33.1,33.0,-100.00,WSW,243,0.0,1.0,100,0.00,,,0.43,,2013-11-22 22:24:00,
2013-11-22 16:29:00,33.0,33.0,-100.00,SW,232,0.0,1.0,100,0.00,,,0.43,,2013-11-22 22:29:00,
2013-11-22 16:34:00,33.0,33.0,-100.00,SW,226,0.0,1.0,100,0.00,,,0.43,,2013-11-22 22:34:00,
2013-11-22 16:39:00,32.9,32.0,-100.00,SW,234,0.0,1.0,100,0.00,,,0.43,,2013-11-22 22:39:00,
2013-11-22 16:44:00,32.9,32.0,-100.00,SW,223,0.0,1.0,100,0.00,,,0.43,,2013-11-22 22:44:00,
2013-11-22 16:49:00,32.9,32.0,-100.00,WSW,257,0.0,1.0,100,0.00,,,0.43,,2013-11-22 22:49:00,
2013-11-22 16:54:00,32.9,32.0,-100.00,WSW,243,0.0,1.0,100,0.00,,,0.43,,2013-11-22 22:54:00,
2013-11-22 16:59:00,32.9,32.0,-100.00,SW,220,0.0,1.0,100,0.00,,,0.43,,2013-11-22 22:59:00,
2013-11-22 17:04:00,32.8,32.0,-100.00,West,265,0.0,1.0,100,0.00,,,0.43,,2013-11-22 23:04:00,
2013-11-22 17:09:00,32.8,32.0,-100.00,SW,220,0.0,1.0,100,0.00,,,0.43,,2013-11-22 23:09:00,
2013-11-22 17:14:00,32.8,32.0,-100.00,SW,226,0.0,1.0,100,0.00,,,0.43,,2013-11-22 23:14:00,
2013-11-22 17:19:00,32.8,32.0,-100.00,SW,220,0.0,1.0,100,0.00,,,0.43,,2013-11-22 23:19:00,
2013-11-22 17:24:00,32.8,32.0,-100.00,SW,220,0.0,1.0,100,0.00,,,0.43,,2013-11-22 23:24:00,
2013-11-22 17:29:00,32.8,32.0,-100.00,SW,220,0.0,1.0,100,0.00,,,0.43,,2013-11-22 23:29:00,
2013-11-22 17:34:00,32.8,32.0,-100.00,WSW,237,0.0,1.0,100,0.00,,,0.43,,2013-11-22 23:34:00,
2013-11-22 17:39:00,32.8,32.0,-100.00,WSW,257,0.0,1.0,100,0.00,,,0.43,,2013-11-22 23:39:00,
2013-11-22 17:44:00,32.8,32.0,-100.00,SW,220,0.0,1.0,100,0.00,,,0.43,,2013-11-22 23:44:00,
2013-11-22 17:49:00,32.7,32.0,-100.00,SW,220,0.0,1.0,100,0.00,,,0.43,,2013-11-22 23:49:00,
2013-11-22 17:54:00,32.6,32.0,-100.00,SW,220,0.0,1.0,100,0.00,,,0.43,,2013-11-22 23:54:00,
2013-11-22 17:59:00,32.6,32.0,-100.00,SW,220,0.0,0.0,100,0.00,,,0.43,,2013-11-22 23:59:00,
2013-11-22 18:04:00,32.6,32.0,-100.00,SW,220,0.0,1.0,100,0.00,,,0.43,,2013-11-23 00:04:00,
2013-11-22 18:09:00,32.6,32.0,-100.00,SW,220,0.0,1.0,100,0.00,,,0.43,,2013-11-23 00:09:00,
2013-11-22 18:14:00,32.6,32.0,-100.00,SW,229,0.0,1.0,100,0.00,,,0.43,,2013-11-23 00:14:00,
2013-11-22 18:19:00,32.5,32.0,-100.00,SW,220,0.0,0.0,100,0.00,,,0.43,,2013-11-23 00:19:00,
2013-11-22 18:24:00,32.6,32.0,-100.00,SW,234,0.0,0.0,100,0.00,,,0.43,,2013-11-23 00:24:00,
2013-11-22 18:29:00,32.6,32.0,-100.00,SW,220,0.0,0.0,100,0.00,,,0.43,,2013-11-23 00:29:00,
2013-11-22 18:34:00,32.5,32.0,-100.00,SW,220,0.0,1.0,100,0.00,,,0.43,,2013-11-23 00:34:00,
2013-11-22 18:39:00,32.5,32.0,-100.00,SE,130,0.0,1.0,100,0.00,,,0.43,,2013-11-23 00:39:00,
2013-11-22 18:44:00,32.5,32.0,-100.00,SE,130,0.0,1.0,100,0.00,,,0.43,,2013-11-23 00:44:00,
2013-11-22 18:49:00,32.5,32.0,-100.00,SE,130,0.0,0.0,100,0.00,,,0.43,,2013-11-23 00:49:00,
2013-11-22 18:54:00,32.6,32.0,-100.00,SE,130,0.0,0.0,100,0.00,,,0.43,,2013-11-23 00:54:00,
2013-11-22 18:59:00,32.5,32.0,-100.00,SE,130,0.0,0.0,100,0.00,,,0.43,,2013-11-23 00:59:00,
2013-11-22 19:04:00,32.5,32.0,-100.00,SSE,153,0.0,1.0,100,0.00,,,0.43,,2013-11-23 01:04:00,
2013-11-22 19:09:00,32.5,32.0,-100.00,SSE,153,0.0,1.0,100,0.00,,,0.43,,2013-11-23 01:09:00,
2013-11-22 19:14:00,32.5,32.0,-100.00,SSE,153,0.0,1.0,100,0.00,,,0.43,,2013-11-23 01:14:00,
2013-11-22 19:19:00,32.6,32.0,-100.00,SW,220,0.0,0.0,100,0.00,,,0.43,,2013-11-23 01:19:00,
2013-11-22 19:24:00,32.6,32.0,-100.00,SW,220,0.0,0.0,100,0.00,,,0.43,,2013-11-23 01:24:00,
2013-11-22 19:29:00,32.6,32.0,-100.00,WSW,240,0.0,0.0,100,0.00,,,0.43,,2013-11-23 01:29:00,
2013-11-22 19:34:00,32.6,32.0,-100.00,SW,220,0.0,0.0,100,0.00,,,0.43,,2013-11-23 01:34:00,
2013-11-22 19:39:00,32.5,32.0,-100.00,SW,220,0.0,0.0,100,0.00,,,0.43,,2013-11-23 01:39:00,
2013-11-22 19:44:00,32.5,32.0,-100.00,SW,226,0.0,0.0,100,0.00,,,0.43,,2013-11-23 01:44:00,
2013-11-22 19:49:00,32.5,32.0,-100.00,WSW,254,0.0,0.0,100,0.00,,,0.43,,2013-11-23 01:49:00,
2013-11-22 19:54:00,32.5,32.0,-100.00,SW,220,0.0,0.0,100,0.00,,,0.43,,2013-11-23 01:54:00,
2013-11-22 19:59:00,32.5,32.0,-100.00,West,260,0.0,1.0,100,0.00,,,0.43,,2013-11-23 01:59:00,
2013-11-22 20:04:00,32.5,32.0,-100.00,WSW,243,0.0,1.0,100,0.00,,,0.43,,2013-11-23 02:04:00,
2013-11-22 20:09:00,32.5,32.0,-100.00,SW,220,0.0,1.0,100,0.00,,,0.43,,2013-11-23 02:09:00,
2013-11-22 20:14:00,32.5,32.0,-100.00,West,265,0.0,1.0,100,0.00,,,0.43,,2013-11-23 02:14:00,
2013-11-22 20:19:00,32.5,32.0,-100.00,SW,220,0.0,1.0,100,0.00,,,0.43,,2013-11-23 02:19:00,
2013-11-22 20:24:00,32.5,32.0,-100.00,SW,220,0.0,0.0,100,0.00,,,0.43,,2013-11-23 02:24:00,
2013-11-22 20:29:00,32.6,32.0,-100.00,SW,226,0.0,1.0,100,0.00,,,0.43,,2013-11-23 02:29:00,
2013-11-22 20:34:00,32.6,32.0,-100.00,WSW,243,0.0,1.0,100,0.00,,,0.43,,2013-11-23 02:34:00,
2013-11-22 20:39:00,32.6,32.0,-100.00,WSW,243,0.0,1.0,100,0.00,,,0.43,,2013-11-23 02:39:00,
2013-11-22 20:44:00,32.7,32.0,-100.00,WSW,243,0.0,0.0,100,0.00,,,0.43,,2013-11-23 02:44:00,
2013-11-22 20:49:00,32.7,32.0,-100.00,WSW,240,0.0,1.0,100,0.00,,,0.43,,2013-11-23 02:49:00,
2013-11-22 20:54:00,32.6,32.0,-100.00,SW,229,0.0,1.0,100,0.00,,,0.43,,2013-11-23 02:54:00,
2013-11-22 20:59:00,32.6,32.0,-100.00,WSW,243,0.0,1.0,100,0.00,,,0.43,,2013-11-23 02:59:00,
2013-11-22 21:04:00,32.6,32.0,-100.00,SW,220,0.0,0.0,100,0.00,,,0.43,,2013-11-23 03:04:00,
2013-11-22 21:09:00,32.6,32.0,-100.00,SW,234,0.0,0.0,100,0.00,,,0.43,,2013-11-23 03:09:00,
2013-11-22 21:14:00,32.6,32.0,-100.00,WSW,243,0.0,0.0,100,0.00,,,0.43,,2013-11-23 03:14:00,
2013-11-22 21:19:00,32.7,32.0,-100.00,WSW,246,0.0,0.0,100,0.00,,,0.43,,2013-11-23 03:19:00,
2013-11-22 21:24:00,32.6,32.0,-100.00,West,265,0.0,0.0,100,0.00,,,0.43,,2013-11-23 03:24:00,
2013-11-22 21:29:00,32.6,32.0,-100.00,SW,220,0.0,0.0,100,0.00,,,0.43,,2013-11-23 03:29:00,
2013-11-22 21:34:00,32.7,32.0,-100.00,SW,220,0.0,1.0,100,0.00,,,0.43,,2013-11-23 03:34:00,
2013-11-22 21:39:00,32.8,32.0,-100.00,SW,220,0.0,1.0,100,0.00,,,0.43,,2013-11-23 03:39:00,
2013-11-22 21:44:00,32.7,32.0,-100.00,SW,220,0.0,0.0,100,0.00,,,0.43,,2013-11-23 03:44:00,
2013-11-22 21:49:00,32.7,32.0,-100.00,SW,220,0.0,0.0,100,0.00,,,0.43,,2013-11-23 03:49:00,
2013-11-22 21:54:00,32.7,32.0,-100.00,SW,220,0.0,0.0,100,0.00,,,0.43,,2013-11-23 03:54:00,
2013-11-22 21:59:00,32.7,32.0,-100.00,SW,220,0.0,0.0,100,0.00,,,0.43,,2013-11-23 03:59:00,
2013-11-22 22:04:00,32.7,32.0,-100.00,SSW,198,0.0,0.0,100,0.00,,,0.43,,2013-11-23 04:04:00,
2013-11-22 22:09:00,32.7,32.0,-100.00,SSW,204,0.0,0.0,100,0.03,,,0.46,,2013-11-23 04:09:00,
2013-11-22 22:14:00,32.7,32.0,-100.00,SW,220,0.0,0.0,100,0.03,,,0.46,,2013-11-23 04:14:00,
2013-11-22 22:24:00,32.8,32.0,-100.00,SW,220,0.0,1.0,100,0.03,,,0.46,,2013-11-23 04:24:00,
2013-11-22 22:29:00,32.8,32.0,-100.00,SW,220,0.0,1.0,100,0.03,,,0.46,,2013-11-23 04:29:00,
2013-11-22 22:34:00,32.8,32.0,-100.00,SW,220,0.0,1.0,100,0.03,,,0.46,,2013-11-23 04:34:00,
2013-11-22 22:39:00,32.8,32.0,-100.00,SW,220,0.0,1.0,100,0.03,,,0.46,,2013-11-23 04:39:00,
2013-11-22 22:44:00,32.9,32.0,-100.00,SW,220,0.0,0.0,100,0.03,,,0.46,,2013-11-23 04:44:00,
2013-11-22 22:49:00,32.8,32.0,-100.00,SW,220,0.0,0.0,100,0.03,,,0.46,,2013-11-23 04:49:00,
2013-11-22 22:54:00,32.9,32.0,-100.00,SW,220,0.0,0.0,100,0.03,,,0.46,,2013-11-23 04:54:00,
2013-11-22 22:59:00,33.0,33.0,-100.00,SW,220,0.0,0.0,100,0.03,,,0.46,,2013-11-23 04:59:00,
2013-11-22 23:04:00,32.9,32.0,-100.00,SSW,198,0.0,0.0,100,0.03,,,0.46,,2013-11-23 05:04:00,
2013-11-22 23:09:00,33.0,32.0,-100.00,SSW,204,0.0,0.0,100,0.00,,,0.46,,2013-11-23 05:09:00,
2013-11-22 23:14:00,33.0,33.0,-100.00,SW,220,0.0,0.0,100,0.00,,,0.46,,2013-11-23 05:14:00,
2013-11-22 23:19:00,33.0,33.0,-100.00,SSW,198,0.0,0.0,100,0.03,,,0.49,,2013-11-23 05:19:00,
2013-11-22 23:24:00,33.1,33.0,-100.00,SSW,198,0.0,0.0,100,0.03,,,0.49,,2013-11-23 05:24:00,
2013-11-22 23:29:00,33.0,33.0,-100.00,SW,217,0.0,1.0,100,0.03,,,0.49,,2013-11-23 05:29:00,
2013-11-22 23:34:00,33.1,33.0,-100.00,SW,220,0.0,1.0,100,0.03,,,0.49,,2013-11-23 05:34:00,
2013-11-22 23:39:00,33.0,33.0,-100.00,SW,220,0.0,0.0,100,0.03,,,0.49,,2013-11-23 05:39:00,
2013-11-22 23:44:00,33.0,33.0,-100.00,SW,220,0.0,0.0,100,0.03,,,0.49,,2013-11-23 05:44:00,
2013-11-22 23:49:00,33.0,33.0,-100.00,SW,223,0.0,0.0,100,0.03,,,0.49,,2013-11-23 05:49:00,
2013-11-22 23:54:00,33.0,33.0,-100.00,SW,220,0.0,0.0,100,0.03,,,0.49,,2013-11-23 05:54:00,
2013-11-22 23:59:00,33.0,33.0,-100.00,SW,220,0.0,0.0,100,0.03,,,0.49,,2013-11-23 05:59:00,